Dane County Regional Airport (Madison, WI) (MSN)


Airport Diagram
Current Weather/Forecast (MVFR Conditions)
METAR KMSN 271353Z 24005KT 10SM OVC023 M05/M11 A2998 RMK AO2 SLP169 T10501106
TAF KMSN 271234Z 2713/2812 23007KT P6SM SCT027 OVC040 FM271500 24008KT P6SM BKN025 FM271700 28010G20KT P6SM BKN023 FM272000 32013KT P6SM BKN045 FM272300 33011KT P6SM BKN029 FM280000 33010KT P6SM BKN035 FM281100 32005KT P6SM SCT050

All Charts
General
Chart Name Download
AIRPORT DIAGRAM
TAKEOFF MINIMUMS
ALTERNATE MINIMUMS
HOT SPOT
LAHSO

Approaches
Chart Name Download
ILS OR LOC RWY 18
ILS OR LOC RWY 21
ILS OR LOC/DME RWY 36
ILS RWY 36 (SA CAT I)
ILS RWY 18 (SA CAT I - II)
ILS RWY 36 (CAT II - III)
RNAV (GPS) RWY 03
RNAV (GPS) RWY 14
RNAV (GPS) RWY 18
RNAV (GPS) RWY 21
RNAV (GPS) RWY 32
RNAV (GPS) RWY 36
VOR RWY 14
VOR RWY 32
HI-TACAN RWY 18
HI-TACAN RWY 36